Hourly Weather Barvinok

Today, 8 March, Monday

Time Temperature Precipitation Wind Pressure Humidity
00:00 -1°C° 0 mm 5 mps 759 mmHg 76%
01:00 -1°C° 0 mm 5 mps 759 mmHg 78%
02:00 -1°C° 0 mm 4 mps 758 mmHg 85%
03:00 -1°C° 0 mm 4 mps 758 mmHg 86%
04:00 -2°C° 0 mm 4 mps 758 mmHg 87%
05:00 -2°C° 0 mm 4 mps 757 mmHg 88%
06:00 -1°C° 0 mm 4 mps 757 mmHg 84%
07:00 0°C° 0 mm 4 mps 757 mmHg 79%
08:00 0°C° 0 mm 4 mps 757 mmHg 75%
09:00 +3°C° 0 mm 4 mps 757 mmHg 68%
10:00 +3°C° 0 mm 5 mps 757 mmHg 60%
11:00 +5°C° 0 mm 5 mps 757 mmHg 53%
12:00 +5°C° 0 mm 5 mps 756 mmHg 50%
13:00 +6°C° 0 mm 5 mps 756 mmHg 47%
14:00 +6°C° 0 mm 5 mps 755 mmHg 43%
15:00 +6°C° 0 mm 5 mps 755 mmHg 46%
16:00 +5°C° 0 mm 4 mps 755 mmHg 49%
17:00 +5°C° 0 mm 4 mps 755 mmHg 52%
18:00 +4°C° 0 mm 4 mps 756 mmHg 58%
19:00 +3°C° 0 mm 3 mps 756 mmHg 63%
20:00 +2°C° 0 mm 3 mps 756 mmHg 68%
21:00 +1°C° 0 mm 3 mps 757 mmHg 71%
22:00 0°C° 0 mm 3 mps 757 mmHg 74%
23:00 0°C° 0 mm 3 mps 757 mmHg 77%

Tomorrow, 9 March, Tuesday

Time Temperature Precipitation Wind Pressure Humidity
00:00 -1°C° 0 mm 3 mps 758 mmHg 77%
01:00 -1°C° 0 mm 3 mps 758 mmHg 76%
02:00 -1°C° 0 mm 3 mps 758 mmHg 75%
03:00 -2°C° 0 mm 3 mps 759 mmHg 74%
04:00 -2°C° 0 mm 3 mps 759 mmHg 73%
05:00 -3°C° 0 mm 4 mps 759 mmHg 72%
06:00 -3°C° 0 mm 4 mps 760 mmHg 66%
07:00 -3°C° 0 mm 4 mps 760 mmHg 61%
08:00 -3°C° 0 mm 4 mps 760 mmHg 55%
09:00 -2°C° 0 mm 4 mps 761 mmHg 50%
10:00 -1°C° 0 mm 4 mps 761 mmHg 44%
11:00 0°C° 0 mm 4 mps 761 mmHg 39%
12:00 +1°C° 0 mm 4 mps 761 mmHg 38%
13:00 +1°C° 0 mm 4 mps 761 mmHg 38%
14:00 +3°C° 0 mm 4 mps 762 mmHg 37%
15:00 +1°C° 0 mm 4 mps 762 mmHg 40%
16:00 +1°C° 0 mm 4 mps 762 mmHg 42%
17:00 0°C° 0 mm 4 mps 762 mmHg 44%
18:00 -1°C° 0 mm 4 mps 762 mmHg 50%
19:00 -1°C° 0 mm 3 mps 763 mmHg 55%
20:00 -2°C° 0 mm 3 mps 763 mmHg 60%
21:00 -2°C° 0 mm 3 mps 763 mmHg 62%
22:00 -2°C° 0 mm 2 mps 764 mmHg 63%
23:00 -3°C° 0 mm 2 mps 764 mmHg 65%

Day after tomorrow, 10 March, Wednesday

Time Temperature Precipitation Wind Pressure Humidity
00:00 -3°C° 0 mm 2 mps 764 mmHg 66%
01:00 -3°C° 0 mm 2 mps 764 mmHg 67%
02:00 -3°C° 0 mm 2 mps 765 mmHg 68%
03:00 -4°C° 0 mm 2 mps 765 mmHg 69%
04:00 -4°C° 0 mm 2 mps 765 mmHg 70%
05:00 -4°C° 0 mm 2 mps 765 mmHg 71%
06:00 -5°C° 0 mm 3 mps 765 mmHg 66%
07:00 -5°C° 0 mm 3 mps 765 mmHg 62%
08:00 -4°C° 0 mm 4 mps 765 mmHg 57%
09:00 -3°C° 0 mm 4 mps 765 mmHg 50%
10:00 -2°C° 0 mm 4 mps 765 mmHg 44%
11:00 -1°C° 0 mm 4 mps 765 mmHg 37%
12:00 -1°C° 0 mm 4 mps 765 mmHg 35%
13:00 -1°C° 0 mm 4 mps 764 mmHg 33%
14:00 0°C° 0 mm 4 mps 764 mmHg 31%
15:00 -1°C° 0 mm 4 mps 764 mmHg 33%
16:00 -1°C° 0 mm 4 mps 764 mmHg 35%
17:00 -1°C° 0 mm 4 mps 763 mmHg 37%
18:00 -2°C° 0 mm 4 mps 763 mmHg 40%
19:00 -4°C° 0 mm 5 mps 763 mmHg 43%
20:00 -5°C° 0 mm 5 mps 764 mmHg 46%
21:00 -5°C° 0 mm 5 mps 764 mmHg 47%
22:00 -4°C° 0 mm 4 mps 764 mmHg 47%
23:00 -4°C° 0 mm 4 mps 764 mmHg 48%

11 March, Thursday

Time Temperature Precipitation Wind Pressure Humidity
00:00 -4°C° 0 mm 4 mps 764 mmHg 50%
01:00 -4°C° 0 mm 4 mps 764 mmHg 51%
02:00 -4°C° 0 mm 4 mps 764 mmHg 52%
03:00 -5°C° 0 mm 4 mps 764 mmHg 52%
04:00 -5°C° 0 mm 4 mps 764 mmHg 51%
05:00 -5°C° 0 mm 4 mps 764 mmHg 51%
06:00 -5°C° 0 mm 5 mps 764 mmHg 49%
07:00 -5°C° 0 mm 5 mps 764 mmHg 46%
08:00 -4°C° 0 mm 6 mps 765 mmHg 44%
09:00 -3°C° 0 mm 6 mps 765 mmHg 40%
10:00 -2°C° 0 mm 6 mps 765 mmHg 37%
11:00 -1°C° 0 mm 5 mps 765 mmHg 33%
12:00 0°C° 0 mm 5 mps 765 mmHg 32%
13:00 +1°C° 0 mm 5 mps 765 mmHg 31%
14:00 +1°C° 0 mm 5 mps 765 mmHg 30%
15:00 +1°C° 0 mm 5 mps 765 mmHg 32%
16:00 0°C° 0 mm 4 mps 765 mmHg 35%
17:00 0°C° 0 mm 4 mps 765 mmHg 37%
18:00 -2°C° 0 mm 4 mps 765 mmHg 41%
19:00 -3°C° 0 mm 4 mps 766 mmHg 46%
20:00 -4°C° 0 mm 4 mps 766 mmHg 51%
21:00 -4°C° 0 mm 4 mps 766 mmHg 51%
22:00 -4°C° 0 mm 4 mps 766 mmHg 52%
23:00 -5°C° 0 mm 4 mps 767 mmHg 52%

12 March, Friday

Time Temperature Precipitation Wind Pressure Humidity
00:00 -5°C° 0 mm 4 mps 767 mmHg 52%
01:00 -5°C° 0 mm 4 mps 767 mmHg 52%
02:00 -5°C° 0 mm 4 mps 767 mmHg 52%
03:00 -6°C° 0 mm 3 mps 767 mmHg 51%
04:00 -6°C° 0 mm 3 mps 767 mmHg 50%
05:00 -6°C° 0 mm 3 mps 767 mmHg 49%
06:00 -7°C° 0 mm 4 mps 767 mmHg 45%
07:00 -7°C° 0 mm 4 mps 767 mmHg 41%
08:00 -6°C° 0 mm 5 mps 768 mmHg 37%
09:00 -5°C° 0 mm 5 mps 768 mmHg 33%
10:00 -4°C° 0 mm 5 mps 768 mmHg 29%
11:00 -2°C° 0 mm 5 mps 767 mmHg 24%
12:00 -1°C° 0 mm 5 mps 767 mmHg 26%
13:00 0°C° 0 mm 5 mps 767 mmHg 29%
14:00 0°C° 0 mm 5 mps 767 mmHg 31%
15:00 0°C° 0 mm 5 mps 766 mmHg 35%
16:00 -2°C° 0 mm 6 mps 766 mmHg 40%
17:00 -2°C° 0 mm 6 mps 766 mmHg 44%
18:00 -3°C° 0 mm 6 mps 766 mmHg 48%
19:00 -4°C° 0 mm 6 mps 766 mmHg 52%
20:00 -4°C° 0 mm 7 mps 766 mmHg 57%
21:00 -4°C° 0 mm 7 mps 766 mmHg 60%
22:00 -4°C° 0 mm 7 mps 766 mmHg 64%
23:00 -4°C° 0 mm 7 mps 766 mmHg 67%

13 March, Saturday

Time Temperature Precipitation Wind Pressure Humidity
00:00 -4°C° 0.2 mm 7 mps 766 mmHg 71%
01:00 -4°C° 0.2 mm 6 mps 765 mmHg 74%
02:00 -4°C° 0.2 mm 6 mps 765 mmHg 77%
03:00 -4°C° 0.2 mm 6 mps 765 mmHg 83%
04:00 -4°C° 0.2 mm 6 mps 765 mmHg 88%
05:00 -3°C° 0.2 mm 6 mps 765 mmHg 93%
06:00 -3°C° 0.2 mm 6 mps 765 mmHg 90%
07:00 -2°C° 0.2 mm 5 mps 765 mmHg 86%
08:00 -2°C° 0.2 mm 5 mps 765 mmHg 83%
09:00 -1°C° 0 mm 5 mps 765 mmHg 73%
10:00 0°C° 0 mm 5 mps 765 mmHg 62%
11:00 +1°C° 0 mm 5 mps 765 mmHg 51%
12:00 +2°C° 0 mm 5 mps 765 mmHg 48%
13:00 +3°C° 0 mm 5 mps 765 mmHg 45%
14:00 +3°C° 0 mm 5 mps 765 mmHg 41%
15:00 +4°C° 0 mm 4 mps 764 mmHg 44%
16:00 +3°C° 0 mm 4 mps 764 mmHg 47%
17:00 +3°C° 0 mm 4 mps 763 mmHg 49%
18:00 +1°C° 0 mm 4 mps 763 mmHg 54%
19:00 0°C° 0 mm 4 mps 763 mmHg 59%
20:00 -1°C° 0 mm 4 mps 763 mmHg 64%
21:00 -1°C° 0 mm 4 mps 763 mmHg 67%
22:00 0°C° 0 mm 3 mps 763 mmHg 70%
23:00 -1°C° 0 mm 3 mps 763 mmHg 73%
Show more